Retour au catalogue

ONEWEB-0638

ActifCommunicationsPO
NORAD 55802·PAYLOAD·🇬🇧 United Kingdom

Lancé Mar 9, 2023 depuis Cape Canaveral Space Force Station

Loading…

Prochains Passages (prochaines 24 heures)

TLE

FraisSource: CelesTrak SupGP

Époque: Sep 14, 2026, 16:29 UTC

1 55802C 23029G   26257.68729167 -.00002671  00000+0 -72127-2 0  2579
2 55802  87.8882 271.8948 0002472  96.2127 303.8553 13.14501524    18

Suivez ONEWEB-0638 en temps réel avec AllMySat

Download on the App Store